GW5507 Weather Reports


time (UTC)temp
C
wind
direction
speed
KPH
gust
KPH
rain 1hr
cm
rain 24hr
cm
rain mn
cm
humidity
%
barometer
mb
20260503200153 16 209 4.8 4.8 0.00 0.00 0.00 41 1013.2
20260503195650 17 246 1.6 3.2 0.00 0.00 0.00 39 1013.2
20260503195147 16 279 3.2 3.2 0.00 0.00 0.00 43 1013.1
20260503194644 15 300 4.8 4.8 0.00 0.00 0.00 40 1013.4
20260503194139 16 283 6.4 8.0 0.00 0.00 0.00 41 1013.7
20260503193637 15 252 1.6 1.6 0.00 0.00 0.00 46 1013.5
20260503193132 15 300 8.0 12.9 0.00 0.00 0.00 42 1013.6
20260503192628 16 271 3.2 4.8 0.00 0.00 0.00 42 1013.9
20260503192124 16 213 8.0 12.9 0.00 0.00 0.00 41 1013.8
20260503191621 15 277 3.2 4.8 0.00 0.00 0.00 43 1013.9
20260503191118 15 100 3.2 4.8 0.00 0.00 0.00 42 1014.0
20260503190615 16 52 1.6 4.8 0.00 0.00 0.00 43 1014.1
20260503190112 16 296 9.7 11.3 0.00 0.00 0.00 43 1013.9
20260503185608 16 273 6.4 8.0 0.00 0.00 0.00 43 1014.0
20260503185108 16 282 4.8 9.7 0.00 0.00 0.00 43 1014.1
20260503184604 16 254 4.8 4.8 0.00 0.00 0.00 44 1014.2
20260503184100 16 255 3.2 3.2 0.00 0.00 0.00 45 1014.2
20260503183557 16 257 3.2 4.8 0.00 0.00 0.00 42 1014.3
20260503183054 16 323 4.8 9.7 0.00 0.00 0.00 41 1014.4
20260503182553 15 238 3.2 4.8 0.00 0.00 0.00 42 1014.4
20260503182050 15 279 4.8 4.8 0.00 0.00 0.00 48 1014.3
20260503181547 15 287 1.6 4.8 0.00 0.00 0.00 45 1014.5
20260503181043 16 254 4.8 9.7 0.00 0.00 0.00 46 1014.6
20260503180541 16 259 3.2 4.8 0.00 0.00 0.00 47 1014.4
20260503180038 16 113 3.2 4.8 0.00 0.00 0.00 46 1014.7
20260503175535 15 270 3.2 3.2 0.00 0.00 0.00 45 1014.6
20260503175033 16 276 4.8 8.0 0.00 0.00 0.00 43 1014.6
20260503174530 16 286 4.8 4.8 0.00 0.00 0.00 46 1014.8
20260503174026 15 249 6.4 8.0 0.00 0.00 0.00 40 1015.0
20260503173521 15 227 4.8 9.7 0.00 0.00 0.00 44 1014.8
20260503173017 15 100 4.8 8.0 0.00 0.00 0.00 45 1015.0
20260503172515 15 275 8.0 9.7 0.00 0.00 0.00 43 1014.9
20260503172012 15 264 4.8 4.8 0.00 0.00 0.00 47 1014.7
20260503171508 15 227 3.2 8.0 0.00 0.00 0.00 45 1015.1
20260503171006 15 266 3.2 4.8 0.00 0.00 0.00 44 1015.1
20260503170502 15 262 1.6 3.2 0.00 0.00 0.00 46 1015.1
20260503150855 12 259 1.6 1.6 0.00 0.00 0.00 48 1016.0
20260503150351 12 253 0.0 1.6 0.00 0.00 0.00 45 1015.9
20260503140315 10 266 3.2 4.8 0.00 0.00 0.00 58 1016.4
20260503131244 7 261 1.6 1.6 0.00 0.00 0.00 74 1016.9
20260503130742 7 253 3.2 3.2 0.00 0.00 0.00 74 1017.2
20260503130239 6 253 4.8 4.8 0.00 0.00 0.00 79 1017.1
20260503120205 1 259 0.0 0.0 0.00 0.00 0.00 99 1016.5
20260503110632 -1 254 0.0 0.0 0.00 0.00 0.00 99 1016.4
20260503110130 -1 253 0.0 0.0 0.00 0.00 0.00 99 1016.1
20260503081446 0 254 0.0 0.0 0.00 0.00 0.00 99 1015.6
20260503080943 0 254 0.0 0.0 0.00 0.00 0.00 99 1015.7
20260503080439 0 254 0.0 0.0 0.00 0.00 0.00 99 1015.6
20260503072916 0 254 0.0 0.0 0.00 0.00 0.00 99 1015.6
20260503072413 0 254 0.0 0.0 0.00 0.00 0.00 99 1015.7
20260503071909 0 254 0.0 0.0 0.00 0.00 0.00 99 1015.5
20260503071407 0 254 0.0 0.0 0.00 0.00 0.00 99 1015.7
20260503070902 0 254 0.0 0.0 0.00 0.00 0.00 99 1015.5
20260503070400 0 254 0.0 0.0 0.00 0.00 0.00 99 1015.4
20260503060326 1 255 0.0 0.0 0.00 0.00 0.00 99 1015.7
20260503054814 1 255 0.0 0.0 0.00 0.00 0.00 99 1015.6
20260503054309 1 255 0.0 0.0 0.00 0.00 0.00 99 1015.6
20260503053808 1 255 0.0 0.0 0.00 0.00 0.00 99 1015.7
20260503053306 1 255 0.0 0.0 0.00 0.00 0.00 99 1015.9
20260503052802 1 255 0.0 0.0 0.00 0.00 0.00 99 1015.6
20260503052259 1 255 0.0 0.0 0.00 0.00 0.00 99 1015.8
20260503051754 1 255 0.0 0.0 0.00 0.00 0.00 99 1015.9
20260503051252 1 255 0.0 0.0 0.00 0.00 0.00 99 1016.0
20260503050748 1 256 0.0 0.0 0.00 0.00 0.00 99 1016.0
20260503050244 1 256 0.0 0.0 0.00 0.00 0.00 99 1015.8
20260503045742 1 256 0.0 0.0 0.00 0.00 0.00 99 1016.1
20260503045240 1 256 0.0 0.0 0.00 0.00 0.00 98 1016.0
20260503044736 1 256 0.0 0.0 0.00 0.00 0.00 98 1016.3
20260503044233 1 256 0.0 0.0 0.00 0.00 0.00 98 1016.1
20260503043730 1 256 0.0 0.0 0.00 0.00 0.00 98 1016.1
20260503043227 1 256 0.0 0.0 0.00 0.00 0.00 98 1015.9
20260503042723 2 256 0.0 0.0 0.00 0.00 0.00 98 1016.1
20260503042220 2 256 0.0 0.0 0.00 0.00 0.00 98 1016.1
20260503041716 2 256 0.0 0.0 0.00 0.00 0.00 97 1016.2
20260503041214 2 256 0.0 0.0 0.00 0.00 0.00 97 1015.9
20260503040711 2 256 0.0 0.0 0.00 0.00 0.00 97 1016.1
20260503040209 2 256 0.0 0.0 0.00 0.00 0.00 97 1016.1
20260503035705 2 256 0.0 0.0 0.00 0.05 0.05 97 1016.2
20260503035203 1 256 0.0 0.0 0.00 0.05 0.05 97 1016.1
20260503034700 1 256 0.0 0.0 0.00 0.05 0.05 96 1016.2
20260503034157 2 256 0.0 0.0 0.00 0.05 0.05 96 1016.3
20260503033654 1 256 0.0 0.0 0.00 0.05 0.05 96 1016.2
20260503033152 1 256 0.0 0.0 0.00 0.05 0.05 95 1016.1
20260503032650 1 256 0.0 0.0 0.00 0.05 0.05 95 1016.2
20260503032148 1 256 0.0 0.0 0.00 0.05 0.05 95 1016.2
20260503031645 1 256 0.0 0.0 0.00 0.05 0.05 94 1016.0
20260503031143 2 256 0.0 0.0 0.00 0.05 0.05 94 1016.2
20260503030638 1 256 0.0 0.0 0.00 0.05 0.05 92 1016.2
20260503030136 2 256 0.0 0.0 0.00 0.05 0.05 92 1016.1
20260503025632 2 256 0.0 0.0 0.00 0.05 0.05 92 1016.2
20260503025130 2 256 0.0 0.0 0.00 0.05 0.05 91 1016.1
20260503024626 2 256 0.0 0.0 0.00 0.05 0.05 90 1016.2
20260503024123 2 256 0.0 0.0 0.00 0.05 0.05 90 1016.2
20260503023621 2 256 0.0 0.0 0.00 0.05 0.05 88 1016.4
20260503023118 2 256 0.0 0.0 0.00 0.05 0.05 85 1016.4
20260503022613 3 256 0.0 0.0 0.00 0.05 0.05 84 1016.3
20260503022108 3 256 0.0 0.0 0.00 0.05 0.05 84 1016.1
20260503021606 3 256 0.0 0.0 0.00 0.05 0.05 83 1016.0
20260503021102 3 256 0.0 0.0 0.00 0.05 0.05 82 1016.2
20260503020559 4 256 0.0 0.0 0.00 0.05 0.05 82 1016.1
20260503020056 4 256 0.0 0.0 0.00 0.05 0.05 81 1016.1
20260503015553 4 256 0.0 0.0 0.00 0.05 0.05 81 1016.3
20260503015050 4 255 0.0 0.0 0.00 0.05 0.05 81 1016.1
20260503014546 4 256 0.0 0.0 0.00 0.05 0.05 81 1016.2
20260503014044 4 256 0.0 0.0 0.00 0.05 0.05 81 1016.3
20260503013541 4 256 0.0 0.0 0.00 0.05 0.05 81 1016.4
20260503013039 4 259 0.0 0.0 0.00 0.05 0.05 83 1016.2
20260503012536 4 257 0.0 0.0 0.00 0.05 0.05 83 1016.2
20260503012032 4 258 0.0 0.0 0.00 0.05 0.05 83 1016.4
20260503011529 4 259 0.0 0.0 0.00 0.05 0.05 83 1016.2
20260503011026 4 258 0.0 0.0 0.00 0.05 0.05 82 1016.2
20260503010522 4 256 0.0 0.0 0.00 0.05 0.05 81 1016.0
20260503010020 4 256 0.0 0.0 0.00 0.05 0.05 80 1016.1
20260503005517 4 256 0.0 0.0 0.00 0.05 0.05 79 1016.2
20260503005015 5 258 0.0 0.0 0.00 0.05 0.05 78 1016.1
20260503004510 5 258 0.0 0.0 0.00 0.05 0.05 77 1016.1
20260503004009 5 258 0.0 0.0 0.00 0.05 0.05 75 1016.1
20260503003505 5 258 0.0 0.0 0.00 0.05 0.05 74 1015.7
20260503003002 5 263 0.0 0.0 0.00 0.05 0.05 74 1015.9
20260503002459 5 257 0.0 0.0 0.00 0.05 0.05 76 1015.8
20260503001955 5 264 0.0 0.0 0.00 0.05 0.05 75 1015.8
20260503001452 5 260 0.0 1.6 0.00 0.05 0.05 76 1015.8
20260503000949 5 258 1.6 1.6 0.00 0.05 0.05 74 1015.8
20260503000447 5 270 1.6 1.6 0.00 0.05 0.05 74 1015.9
20260502235944 5 306 3.2 3.2 0.00 0.05 0.05 75 1015.9
20260502235440 5 262 0.0 1.6 0.00 0.05 0.05 74 1015.7
20260502234938 5 255 0.0 0.0 0.00 0.05 0.05 73 1015.6
20260502234434 5 256 0.0 0.0 0.00 0.05 0.05 73 1015.5
20260502233932 5 260 0.0 0.0 0.00 0.05 0.05 72 1015.2
20260502233427 5 261 1.6 1.6 0.00 0.05 0.05 72 1015.5
20260502232924 6 260 0.0 1.6 0.00 0.05 0.05 72 1015.4
20260502232420 6 261 0.0 0.0 0.00 0.05 0.05 71 1015.5
20260502231918 6 270 0.0 0.0 0.00 0.05 0.05 71 1015.5
20260502231415 6 288 3.2 3.2 0.00 0.05 0.05 69 1015.6
20260502230913 6 260 0.0 0.0 0.00 0.05 0.05 70 1015.5
20260502230411 6 269 0.0 1.6 0.00 0.05 0.05 70 1015.6
20260502225908 6 252 1.6 1.6 0.00 0.05 0.05 69 1015.5
20260502225404 6 292 1.6 1.6 0.00 0.05 0.05 70 1015.7
20260502224901 6 280 1.6 3.2 0.00 0.05 0.05 71 1015.5
20260502224357 6 253 0.0 0.0 0.00 0.05 0.05 72 1015.3
20260502223855 6 263 0.0 1.6 0.00 0.05 0.05 72 1015.4
20260502223352 6 262 0.0 0.0 0.00 0.05 0.05 71 1015.5
20260502222850 6 263 1.6 1.6 0.00 0.05 0.05 71 1015.4
20260502222348 6 260 0.0 1.6 0.00 0.05 0.05 70 1015.5
20260502221843 6 268 0.0 1.6 0.00 0.05 0.05 71 1015.5
20260502221339 6 258 0.0 1.6 0.00 0.05 0.05 71 1015.4
20260502220837 6 258 0.0 1.6 0.00 0.05 0.05 72 1015.5
20260502220332 6 218 0.0 0.0 0.00 0.05 0.05 72 1015.6
20260502215829 6 227 1.6 1.6 0.00 0.05 0.05 71 1015.5
20260502215327 6 255 0.0 0.0 0.00 0.05 0.05 71 1015.3
20260502214824 6 254 1.6 1.6 0.00 0.05 0.05 71 1015.3
20260502214320 6 262 1.6 1.6 0.00 0.05 0.05 73 1015.3
20260502213817 6 257 0.0 1.6 0.00 0.05 0.05 75 1015.3
20260502213314 6 261 0.0 0.0 0.00 0.05 0.05 73 1015.3
20260502212814 6 261 0.0 1.6 0.00 0.05 0.05 76 1015.2
20260502212311 6 256 0.0 0.0 0.00 0.05 0.05 76 1015.2
20260502211808 6 257 0.0 1.6 0.00 0.05 0.05 76 1015.2
20260502211304 6 261 1.6 1.6 0.00 0.05 0.05 75 1015.4
20260502210801 6 146 3.2 3.2 0.00 0.05 0.05 75 1015.2
20260502210259 6 255 0.0 1.6 0.00 0.05 0.05 77 1015.1
20260502205755 6 263 0.0 1.6 0.00 0.05 0.05 77 1015.1
20260502205251 6 256 0.0 0.0 0.00 0.05 0.05 79 1015.2
20260502204749 6 263 1.6 1.6 0.00 0.05 0.05 79 1015.2
20260502204246 5 259 0.0 1.6 0.00 0.05 0.05 78 1015.3
20260502203744 6 87 3.2 3.2 0.00 0.05 0.05 78 1015.2
20260502203241 6 266 0.0 0.0 0.00 0.05 0.05 79 1015.3
20260502202735 6 263 0.0 0.0 0.00 0.05 0.05 77 1015.1
20260502202234 6 263 1.6 1.6 0.00 0.05 0.05 76 1015.0
20260502201731 6 324 3.2 4.8 0.00 0.05 0.05 77 1015.2
20260502201227 6 246 1.6 3.2 0.00 0.05 0.05 76 1015.3
20260502200724 6 292 1.6 3.2 0.00 0.05 0.05 76 1015.3